sat.trackr.live / text

‹ back to catalog

STARLINK-5762

NORAD 55590 · 2023-020X

PAYLOAD ACTIVE UNKNOWN

§ Identity

Operator
Country
US
Launch date
2023-02-12
Launch site
AFETR
Launch vehicle
Mass (kg)
RCS (m²)

Purposes: comms

External: N2YO · Heavens-Above · Gunter

§ Orbital elements

Epoch: 2026-09-20T12:59:26.671488Z

Period
94.27 min
Inclination
43.0053°
Eccentricity
0.0001229
Mean motion
15.27575580 rev/d
Perigee alt
482.2 km
Apogee alt
483.9 km
Semi-major
6,861.2 km
B*
2.5369e-6
RAAN
344.7166°
Arg perigee
281.3513°
Mean anomaly
78.7201°
Rev number
19,871

§ Raw data

STARLINK-57621 55590U 23020X   26263.54128092 -.00000192  00000+0  25369-5 0  99932 55590  43.0053 344.7166 0001229 281.3513  78.7201 15.27575580198715

JSON: /api/v1/satellites/55590 · /tle

For live sub-satellite position, see the globe view (requires WebGL).

§ Visibility from observer

Set your observer location to see the next 7 days of passes ≥ 10°. The values pass through the URL so the page stays shareable.

No JS? Fill the form by hand. The geolocation button needs JavaScript.